Location: Unspecified
(41.1637°N, 24.2901°E)
Time: 16:41:41
(UTC+02:00)

X-37B - Pass Details

Date: 10 March 2021
Orbit: 380 x 394 km, 45.0° (Epoch: 07 April)

Event Time Altitude Azimuth Distance (km) Brightness Sun altitude
Rises 18:03:40 0° 195° (SSW) 2,256 4.6 -8.3°
Reaches altitude 10° 18:06:51 10° 160° (SSE) 1,411 3.2 -8.9°
Maximum altitude 18:07:58 11° 139° (SE) 1,331 2.9 -9.1°
Enters shadow 18:08:55 10° 122° (ESE) 1,392 2.9 -9.3°
